Location: Mexico
(19.4000°N, 99.1500°W)
Time: 22:20:51
(UTC-06:00)

ISS - Pass Details

Date: 16 November 2019
Orbit: 412 x 421 km, 51.6° (Epoch: 12 November)

Event Time Altitude Azimuth Distance (km) Brightness Sun altitude
Rises 19:05:50 0° 207° (SSW) 2,335 0.7 -16.2°
Reaches altitude 10° 19:07:58 10° 200° (SSW) 1,477 -0.5 -16.7°
Maximum altitude 19:11:08 43° 127° (SE) 589 -3.3 -17.4°
Enters shadow 19:11:17 43° 118° (ESE) 593 -3.4 -17.5°
